{"data":{"norad_id":57067,"epoch":"2026-09-19T21:39:36.698112Z","epoch_age_seconds":172563,"freshness":"FRESH","line1":"1 57067U 23088V   26262.90250808 -.00000383  00000+0 -44240-5 0  9990","line2":"2 57067  43.0007  93.9250 0000693 257.2458 102.8316 15.27573561180035","mean_motion":15.27573561,"eccentricity":6.93e-5,"inclination_deg":43.0007,"raan_deg":93.925,"arg_perigee_deg":257.2458,"mean_anomaly_deg":102.8316,"bstar":-4.424e-6,"rev_number":18003,"period_min":94.267146065118,"perigee_km":482.59289525718,"apogee_km":483.54385832241,"semimajor_km":6861.2053767898,"source":"CELESTRAK","updated_at":"2026-09-21T09:00:33.551940Z"}}